User: anonymous   Login
Location: Peebles
(55.6412°N, 3.1714°W)
Time: 03:17:55
(UTC+00:00)
Language:

Cosmos 1339 Rocket - Orbit

View from above orbital plane
View from above orbital plane
View from above satellite
View from above satellite

Ground track
Ground track

The orbit data is extracted from the following two-line orbital elements,

1 13066U 82012B   21333.37977132  .00000078  00000-0  62761-4 0  9991
2 13066  82.8975  83.4260 0043602   8.2463  24.2120 13.77182885998780
Epoch (UTC): 29 November 2021 09:06:52
Eccentricity: 0.0043602
inclination: 82.8975°
perigee height: 942 km
apogee height: 1006 km
right ascension of ascending node: 83.4260°
argument of perigee: 8.2463°
revolutions per day: 13.77182885
mean anomaly at epoch: 24.2120°
orbit number at epoch: 99878

The dashed part of the orbit path shows where the satellite is in the earth's shadow,  

DLR